Regional Weather Roundup
Issued by NWS

Home | Current Version | Previous Version | Graphics & Text | Print | Product List | Glossary On
Versions: 1 2 3 4 5 6 7 8 9 10 11 12 13 14 15 16 17 18 19 20 21 22 23 24 25 26 27 28 29 30 31 32 33 34 35 36 37 38 39 40 41 42 43 44 45 46 47 48 49 50
647
ASUS44 KJAN 170503
RWRMS

MISSISSIPPI HOURLY WEATHER ROUNDUP
NATIONAL WEATHER SERVICE JACKSON MS
1200 AM CDT WED SEP 17 2014

NOTE: "FAIR: INDICATES FEW OR NO CLOUDS BELOW 12,000 FEET WITH NO
SIGNIFICANT WEATHER AND/OR OBSTRUCTIONS TO VISIBILITY.

MSZ001>002-007>008-010>013-018>021-025>028-034>036-170600-
NORTHWEST MISSISSIPPI

CITY           SKY/WX    TMP DP  RH WIND       PRES   REMARKS
CLARKSDALE       N/A     70  70 100 N5        30.05F
CLEVELAND      FAIR      70  69  96 NE3       30.03S
GREENWOOD      CLEAR     72  69  90 N5        30.03F
GREENVILLE     CLEAR     73  67  81 NE3       30.03S
GRENADA        FAIR      70  66  88 CALM      30.04F
OLIVE BRANCH   CLEAR     64  64 100 NE3       30.07S
OXFORD         FAIR      66  64  94 CALM      30.07S
TUNICA         PTCLDY    66  64  94 N5        30.06S
$$

MSZ003>006-009-014>017-022>024-029>033-037>039-170600-
NORTHEAST MISSISSIPPI

CITY           SKY/WX    TMP DP  RH WIND       PRES   REMARKS
COLUMBUS AFB   NOT AVBL
CORINTH          N/A     64  61  88 CALM      30.06S
GOLDN TRIANGLE CLOUDY    73  66  78 N5        30.03S
STARKVILLE     CLOUDY    72  70  94 N3        30.03F
TUPELO         CLOUDY    69  66  90 NE6       30.04F
$$

MSZ040-058-170600-
CENTRAL MISSISSIPPI

CITY           SKY/WX    TMP DP  RH WIND       PRES   REMARKS
JACKSON INTL   MOCLDY    73  69  87 CALM      30.02F
JACKSON HAWKNS MOCLDY    75  69  81 CALM      30.03S
MERIDIAN KEY   MOCLDY    71  69  93 S3        30.02S
MERIDIAN NAS   PTCLDY    72  69  90 NW3       30.01F
RAYMOND        FAIR      73  68  83 S3        30.03S
VICKSBURG      MOCLDY    75  69  81 S5        30.03R
$$

MSZ059>079-170600-
SOUTH MISSISSIPPI

CITY           SKY/WX    TMP DP  RH WIND       PRES   REMARKS
BROOKHAVEN     FAIR      73  72  94 W3        30.05F
HATTIESBURG    MOCLDY    72  70  93 NE3       30.01F
MCCOMB         PTCLDY    72  70  93 E6        30.03S
NATCHEZ        PTCLDY    73  70  88 CALM      30.03F
PINE BELT      MOCLDY    70  66  88 CALM      30.03F
$$

MSZ080>082-170600-
COASTAL MISSISSIPPI

CITY           SKY/WX    TMP DP  RH WIND       PRES   REMARKS
BILOXI         NOT AVBL
PASCAGOULA     CLOUDY    73  72  96 CALM      29.99F
GULFPORT       CLOUDY    74  71  91 N5        29.98F
$$



USA.gov is the U.S. government's official web portal to all federal, state and local government web resources and services.